"Pseudo-MPEC" for C5ZX1M2

Created 2021 Sep 23 10:07:05 UT using Find_Orb

Click here for an explanation of pseudo-MPECs

 
 Astrometry: 
     C5ZX1M2  C2021 09 18.24097300 54 31.70 +25 53 51.0    ~9I6b 20.30GVNEOCPG96
     C5ZX1M2  C2021 09 18.24626300 54 38.14 +25 54 16.3    ~9I6b 20.63GVNEOCPG96
     C5ZX1M2  C2021 09 18.25157200 54 44.47 +25 54 40.9    ~9I6b 20.93GVNEOCPG96
     C5ZX1M2  C2021 09 18.25686900 54 50.76 +25 55 04.7    ~9I6b 20.45GVNEOCPG96
     C5ZX1M2 mC2021 09 18.42094600 57 51.04 +26 05 10.8    ~9IAM 20.56GVNEOCPG96
     C5ZX1M2 mC2021 09 18.42135800 57 51.44 +26 05 12.0    ~9IAM 21.21GVNEOCPG96
     C5ZX1M2 mC2021 09 18.42177000 57 51.87 +26 05 13.3    ~9IAM 20.19GVNEOCPG96
     C5ZX1M2 mC2021 09 18.42218300 57 52.33 +26 05 14.5    ~9IAM 20.85GVNEOCPG96

Station data:
(G96) Mt. Lemmon Survey  (N32.442754 W110.788720)  US/Arizona.  Observers T.
   A. Pruyne, B. M. Africano, E. J. Christensen, G. A. Farneth, D. C. Fuls,
   A. R. Gibbs, A. D. Grauer, H. Gröller, J. A. Johnson, R. A. Kowalski, S.
   M. Larson, G. J. Leonard, D. Rankin, R. L. Seaman, F. C. Shelly. 1.5-m
   reflector + 10K CCD.

Orbital elements:  C5ZX1M2
   Perihelion 2021 Aug 25.825479 +/- 0.352178 TT = 19:48:41 (JD 2459452.325479)
Epoch 2021 Sep 18.0 TT = JDT 2459475.5   Earth MOID: 0.0002   Ma: 0.0862
M   6.55163730 +/- 1.8648829        (J2000 ecliptic)          AutoNEOCP
n   0.28270864 +/- 0.0857218        Peri.  334.90054 +/- 1.6255858
a   2.29919950 +/- 0.464753         Node   351.41311 +/- 0.3312210
e   0.5778157 +/- 0.0883046         Incl.    3.93259 +/- 0.5633790
P   3.49                   H 28.4   G  0.15   U 11.1  
q 0.97068585 +/- 0.00788678    Q 3.62771315 +/- 1.07796
From 8 observations 2021 Sept. 18 (4.3 hr); mean residual 0".22
Residuals in arcseconds: 
210918 G96  .29-  .24-    210918 G96  .18-  .24-    210918 G96  .21-  .06+    
210918 G96  .45+  .25+    210918 G96  .25+  .09-    210918 G96  .15+  .09+    
210918 G96  .01+  .23+    210918 G96  .18-  .06-    

Ephemerides (geocentric):
Date (UTC) HH   RA              Dec         delta   r     elong  mag " sig PA
---- -- -- --  -------------   -----------  ------ ------ -----  --- ---- ---
2021 09 23 10  01 37 02.005   +27 24 10.55  .04560 1.0408 144.3 23.2 1758  87
2021 09 23 11  01 37 09.059   +27 24 16.82  .04584 1.0409 144.3 23.2 1767  87
2021 09 23 12  01 37 16.033   +27 24 22.90  .04608 1.0411 144.3 23.3 1776  87
2021 09 23 13  01 37 22.928   +27 24 28.80  .04632 1.0413 144.4 23.3 1785  87
2021 09 23 14  01 37 29.746   +27 24 34.53  .04655 1.0415 144.4 23.3 1794  87
2021 09 23 15  01 37 36.486   +27 24 40.08  .04679 1.0417 144.4 23.3 1803  87
2021 09 23 16  01 37 43.151   +27 24 45.46  .04703 1.0419 144.4 23.3 1812  87
2021 09 23 17  01 37 49.741   +27 24 50.67  .04727 1.0421 144.4 23.3 1820  87
2021 09 23 18  01 37 56.258   +27 24 55.71  .04751 1.0423 144.4 23.3 1829  87
2021 09 23 19  01 38 02.703   +27 25 00.59  .04775 1.0425 144.5 23.3 1838  87
2021 09 23 20  01 38 09.076   +27 25 05.30  .04799 1.0427 144.5 23.3 1846  87
2021 09 23 21  01 38 15.379   +27 25 09.85  .04823 1.0429 144.5 23.4 1855  87
2021 09 23 22  01 38 21.612   +27 25 14.25  .04847 1.0431 144.5 23.4 1863  87
2021 09 23 23  01 38 27.777   +27 25 18.49  .04870 1.0433 144.5 23.4 1871  87
2021 09 24 00  01 38 33.874   +27 25 22.57  .04894 1.0435 144.6 23.4 1879  87
2021 09 24 01  01 38 39.905   +27 25 26.50  .04918 1.0437 144.6 23.4 1888  87
2021 09 24 02  01 38 45.871   +27 25 30.29  .04942 1.0439 144.6 23.4 1896  87
2021 09 24 03  01 38 51.771   +27 25 33.92  .04966 1.0441 144.6 23.4 1904  87
2021 09 24 04  01 38 57.608   +27 25 37.41  .04990 1.0443 144.6 23.4 1912  87
2021 09 24 05  01 39 03.382   +27 25 40.75  .05014 1.0445 144.7 23.4 1920  87
2021 09 24 06  01 39 09.093   +27 25 43.95  .05038 1.0447 144.7 23.4 1927  87
2021 09 24 07  01 39 14.744   +27 25 47.01  .05062 1.0449 144.7 23.5 1935  87
2021 09 24 08  01 39 20.334   +27 25 49.93  .05086 1.0451 144.7 23.5 1943  87
2021 09 24 09  01 39 25.864   +27 25 52.72  .05110 1.0453 144.7 23.5 1951  87
2021 09 24 10  01 39 31.335   +27 25 55.36  .05134 1.0455 144.8 23.5 1958  87
2021 09 24 11  01 39 36.748   +27 25 57.88  .05158 1.0457 144.8 23.5 1966  87
2021 09 24 12  01 39 42.104   +27 26 00.26  .05181 1.0458 144.8 23.5 1973  87
2021 09 24 13  01 39 47.404   +27 26 02.51  .05205 1.0460 144.8 23.5 1981  87
2021 09 24 14  01 39 52.647   +27 26 04.63  .05229 1.0462 144.8 23.5 1988  87
2021 09 24 15  01 39 57.835   +27 26 06.63  .05253 1.0464 144.9 23.5 1995  87
2021 09 24 16  01 40 02.969   +27 26 08.50  .05277 1.0466 144.9 23.5 2003  87
2021 09 24 17  01 40 08.049   +27 26 10.24  .05301 1.0468 144.9 23.6 2010  87
2021 09 24 18  01 40 13.076   +27 26 11.86  .05325 1.0470 144.9 23.6 2017  87
2021 09 24 19  01 40 18.051   +27 26 13.36  .05349 1.0472 145.0 23.6 2024  87
2021 09 24 20  01 40 22.974   +27 26 14.74  .05373 1.0474 145.0 23.6 2031  87
2021 09 24 21  01 40 27.846   +27 26 16.00  .05397 1.0476 145.0 23.6 2038  87
2021 09 24 22  01 40 32.668   +27 26 17.14  .05421 1.0478 145.0 23.6 2045  87
2021 09 24 23  01 40 37.439   +27 26 18.16  .05445 1.0480 145.1 23.6 2052  87
2021 09 25 00  01 40 42.162   +27 26 19.07  .05469 1.0483 145.1 23.6 2059  87
2021 09 25 01  01 40 46.836   +27 26 19.87  .05493 1.0485 145.1 23.6 2066  87
2021 09 25 02  01 40 51.462   +27 26 20.55  .05517 1.0487 145.1 23.6 2072  87
2021 09 25 03  01 40 56.040   +27 26 21.12  .05541 1.0489 145.1 23.6 2079  87
2021 09 25 04  01 41 00.572   +27 26 21.58  .05565 1.0491 145.2 23.7 2086  87
2021 09 25 05  01 41 05.057   +27 26 21.93  .05589 1.0493 145.2 23.7 2092  87
2021 09 25 06  01 41 09.497   +27 26 22.18  .05613 1.0495 145.2 23.7 2099  87
2021 09 25 07  01 41 13.892   +27 26 22.31  .05637 1.0497 145.2 23.7 2105  87
2021 09 25 08  01 41 18.242   +27 26 22.35  .05661 1.0499 145.3 23.7 2112  87
2021 09 25 09  01 41 22.548   +27 26 22.27  .05685 1.0501 145.3 23.7 2118  87